Wind_Speed
22 20 18 17 16 16 16 17 17 17 18 19 19 20 20 20 20 21 22 20 19 21 21 18 14 12 13 13 14 15 16 17 17 17 17 17 17 18 18 18 18 19 20 20 20 21 22 22 24 26 27 28 27 25 24 25 26 29 31 31 28 27 25 24 24 25 25 25 25 25 25 26 26 26 25 24 23 23 23 23 23 23 23 23 23 22 22
22 22 21 21 20 19 19 20 20 20 21 22 22 23 23 23 23 24 24 23 23 23 21 19 16 13 13 15 15 16 16 18 19 19 19 19 18 18 18 18 19 20 21 22 21 21 22 22 22 24 25 27 27 26 25 25 25 27 29 32 32 29 26 25 25 26 26 26 26 27 26 26 27 27 27 27 25 24 24 24 24 24 24 25 24 23 23
25 24 23 24 23 23 23 23 22 22 22 23 24 25 25 25 25 25 25 24 24 23 21 22 20 15 13 15 16 17 17 18 20 21 21 21 20 19 19 19 19 20 21 23 23 22 22 22 22 23 24 25 26 26 25 25 25 25 26 30 33 33 29 27 27 27 27 27 27 28 28 28 27 27 28 28 27 26 25 26 26 25 25 26 25 25 25
26 25 24 24 24 25 25 24 23 22 22 23 24 25 25 25 24 25 24 23 24 23 22 23 23 18 16 15 16 18 19 19 19 20 22 22 22 21 20 20 20 20 21 22 24 25 23 22 22 22 23 24 25 25 24 24 24 24 24 26 31 35 34 31 29 29 28 28 28 28 29 29 29 29 29 28 28 27 27 27 27 27 27 27 27 27 26
27 27 25 24 26 27 27 25 22 22 22 22 23 23 23 23 23 23 23 23 23 23 22 24 24 21 19 17 17 19 20 20 20 20 20 22 22 22 22 21 20 21 21 22 23 25 25 24 22 22 23 24 25 25 25 24 23 23 23 24 27 32 36 36 34 31 30 29 29 29 29 30 30 30 30 29 29 29 29 29 28 28 28 28 29 28 27
27 28 26 24 28 29 27 24 21 21 21 20 20 21 21 21 21 21 22 23 23 23 24 25 24 22 20 18 18 19 21 21 21 20 20 21 21 23 23 22 22 21 22 22 22 24 25 25 24 23 23 24 25 25 25 25 24 23 23 23 24 28 33 37 37 35 33 31 30 30 30 30 31 31 31 31 30 30 30 30 29 29 29 30 30 30 29
28 29 25 26 30 29 25 23 21 20 20 19 18 19 19 20 20 20 21 22 22 23 24 25 24 23 22 20 20 21 21 22 22 22 21 20 20 22 23 23 23 22 22 22 22 23 24 26 26 25 23 23 25 26 26 26 25 25 24 24 25 26 29 33 36 38 38 35 32 31 31 31 31 31 31 32 32 32 32 31 31 31 32 32 31 31 31
30 29 26 29 31 27 24 24 23 21 20 19 18 19 19 19 19 19 19 20 21 22 23 24 24 23 23 22 22 22 22 23 23 23 22 21 19 20 21 23 24 23 23 23 23 23 23 25 26 26 25 24 24 25 26 27 26 26 25 25 25 26 28 30 33 37 39 39 36 34 32 32 31 31 31 32 33 34 34 33 33 34 34 34 33 33 33
30 29 29 30 29 25 24 24 23 22 21 19 18 19 19 18 18 19 19 19 20 20 21 22 22 22 23 22 22 22 23 22 22 23 23 22 20 19 19 21 23 23 23 23 23 24 23 24 25 26 26 25 24 25 26 27 27 27 27 27 27 27 27 28 30 34 38 40 40 38 35 33 32 31 31 32 33 34 34 35 35 35 36 36 35 35 35
30 30 30 30 28 26 24 22 21 21 21 19 19 19 18 18 18 19 20 20 20 20 20 21 21 21 20 20 20 21 22 22 21 22 22 22 21 19 19 20 21 21 23 23 23 23 24 24 24 26 26 26 26 26 26 26 27 27 28 29 28 27 27 28 28 31 35 39 41 41 39 36 34 33 33 33 33 33 34 34 35 36 36 36 37 37 37
32 31 31 31 29 27 25 24 23 21 20 20 21 19 18 19 19 19 20 20 20 20 20 20 21 20 17 18 19 20 21 21 21 20 21 21 21 20 19 19 20 20 21 22 22 22 23 24 24 25 27 27 27 27 27 27 27 28 28 29 29 28 28 28 28 28 30 34 39 41 41 39 37 36 36 35 35 35 35 35 34 35 36 37 38 38 38
34 32 30 31 30 29 27 25 22 21 20 22 23 20 19 19 17 17 19 19 19 20 20 20 21 19 17 18 19 19 20 20 20 19 20 20 20 20 20 20 20 20 20 21 21 22 23 24 24 25 27 28 29 29 29 28 28 28 29 28 28 29 29 29 29 29 29 31 34 38 40 40 41 40 40 40 40 38 37 35 34 34 36 37 38 39 39
33 31 30 30 30 30 29 24 22 22 23 24 24 21 20 19 16 16 18 18 18 19 19 20 21 20 19 19 19 19 20 20 19 19 19 19 20 20 21 21 21 21 20 20 21 21 22 23 25 26 27 29 30 30 30 30 29 29 29 29 29 29 30 30 29 30 30 30 31 34 37 40 42 44 44 44 43 42 40 37 36 36 36 37 38 38 39
32 31 31 29 29 31 28 23 22 24 24 24 24 22 21 20 17 17 18 17 18 18 19 20 21 21 21 21 19 19 19 19 19 19 19 19 20 20 21 21 21 21 21 20 20 20 21 22 24 26 27 29 31 31 31 31 31 30 30 30 30 30 30 30 30 30 30 31 32 33 35 37 39 42 44 45 46 45 43 40 39 39 38 38 37 37 39
34 35 35 32 31 33 27 21 23 25 24 25 25 24 23 21 18 18 18 18 18 19 19 20 22 23 23 22 20 19 18 18 19 18 18 19 20 21 21 21 21 21 21 20 20 20 20 21 22 25 27 28 30 32 32 32 32 32 31 31 31 30 30 30 30 30 30 31 32 33 35 36 37 38 41 44 46 46 46 44 43 42 42 40 38 38 40
37 37 37 35 35 36 30 25 26 27 26 27 28 27 26 23 20 20 20 19 19 19 19 21 22 24 24 23 21 19 18 18 18 18 18 19 20 20 21 21 21 21 20 20 19 19 19 19 20 23 25 27 30 31 33 33 33 33 33 32 32 31 31 31 31 31 31 31 31 32 33 35 34 35 37 41 44 46 48 48 46 45 44 42 40 40 41
36 36 39 38 36 34 32 30 30 30 30 31 31 29 27 25 23 22 21 21 21 20 21 22 23 25 25 23 22 21 19 18 18 18 18 19 19 20 20 21 20 20 19 19 19 18 18 18 19 20 23 25 28 30 32 33 34 34 34 34 33 32 31 31 31 31 31 30 30 31 32 33 32 32 34 38 42 45 48 49 49 47 46 45 43 42 42
37 38 40 40 37 35 34 34 33 32 33 33 32 31 30 27 25 24 23 22 21 21 22 23 24 26 26 24 23 22 20 18 18 18 18 19 20 20 20 20 20 20 19 19 18 18 18 18 18 19 20 22 25 28 31 33 34 34 34 34 34 33 32 32 31 31 31 30 30 30 31 31 31 32 34 36 38 41 45 48 48 47 47 46 45 44 44
38 40 41 41 40 38 37 37 36 35 35 34 33 32 31 28 26 25 23 21 21 22 23 24 25 26 26 25 24 23 21 18 17 18 18 19 20 20 20 20 20 20 20 19 19 19 19 19 18 18 18 19 22 25 28 31 34 34 34 34 35 35 34 33 32 32 31 31 31 31 30 30 31 33 34 35 36 38 41 43 44 45 46 46 46 46 47
40 40 41 41 41 39 38 37 37 37 36 35 34 33 31 29 26 24 22 22 22 23 24 25 25 25 25 25 25 23 22 20 18 18 18 19 19 20 20 20 20 20 20 19 19 19 19 19 18 18 18 18 19 21 24 28 32 34 34 33 34 36 36 35 34 33 32 31 31 31 31 31 32 33 34 35 36 37 37 38 41 42 44 44 44 45 47
42 42 42 41 40 39 39 39 39 38 37 36 35 33 31 29 27 25 24 24 24 24 25 26 26 25 26 26 25 24 22 20 19 19 18 18 19 19 19 20 20 20 20 19 19 19 19 19 19 18 18 17 17 19 21 24 28 32 33 33 33 34 36 36 36 35 34 32 32 32 32 32 33 33 34 36 38 39 38 38 39 41 42 43 44 44 46
42 44 45 43 41 41 42 42 41 40 38 36 35 33 31 29 27 26 26 25 26 26 26 26 26 26 26 26 25 24 22 21 20 19 19 18 18 18 19 19 19 19 19 19 20 20 19 19 19 19 18 17 17 17 19 21 25 28 31 32 32 33 34 35 36 35 34 33 32 32 33 34 35 35 35 36 38 40 40 40 41 41 42 44 44 44 46
41 43 44 42 42 43 44 43 42 42 40 38 35 34 32 30 28 28 28 28 28 28 27 27 26 26 26 26 25 24 22 21 20 19 19 18 18 18 19 19 19 19 19 19 20 20 19 19 19 19 18 18 17 17 17 19 21 25 28 29 29 30 32 33 34 35 34 33 33 32 33 35 36 37 37 37 38 39 40 42 43 42 43 44 43 43 48
40 41 41 40 40 43 44 44 44 43 42 40 37 35 33 32 32 31 31 30 29 28 28 28 27 27 27 27 26 24 23 21 20 19 19 18 18 18 18 19 18 18 19 19 20 20 20 19 19 18 18 18 18 17 17 17 19 21 24 26 26 27 29 31 33 33 33 33 33 32 32 34 36 37 37 37 38 38 39 40 41 42 46 47 44 44 53
38 39 39 37 38 41 43 44 44 44 44 43 40 37 35 35 34 34 33 32 30 29 28 29 28 28 27 27 26 25 24 22 21 20 19 18 18 18 19 19 18 18 18 19 19 20 20 19 18 18 18 18 18 18 17 17 17 18 21 23 24 25 26 28 30 31 32 32 33 32 31 32 33 35 36 36 39 40 39 38 39 43 48 53 52 49 55
37 36 36 36 38 39 40 41 42 43 44 43 41 39 38 37 36 35 33 32 31 30 29 29 28 28 28 28 27 26 25 23 21 20 19 19 19 19 19 19 19 19 19 19 19 19 19 19 18 18 18 18 18 18 17 17 17 17 18 20 22 23 25 26 27 29 30 31 31 32 31 29 29 31 31 31 34 39 39 37 37 37 38 42 45 44 43
35 34 34 34 35 36 36 37 38 40 40 41 41 40 39 38 37 35 33 31 30 30 30 29 28 28 28 28 27 26 25 23 21 20 19 19 19 19 19 19 19 19 19 19 19 19 20 19 19 18 18 18 18 18 18 17 16 16 16 18 19 21 23 23 25 26 27 28 29 30 30 29 29 29 27 25 26 29 30 30 30 29 28 27 28 30 32
34 34 33 31 31 31 31 32 34 36 37 37 37 36 35 34 34 34 32 31 31 30 29 28 27 28 28 27 27 26 25 23 21 20 20 20 20 20 20 19 19 19 19 19 20 20 20 20 20 19 19 19 19 19 18 17 16 16 16 17 17 18 19 21 22 23 23 24 25 25 27 28 28 27 25 24 24 25 26 27 28 28 28 27 26 27 30
33 34 33 30 28 28 28 29 31 32 33 34 33 31 30 30 31 32 32 31 30 29 28 27 27 28 27 26 26 25 24 23 21 21 20 21 21 21 20 20 19 19 19 19 19 19 19 19 19 19 19 19 19 19 19 18 17 16 16 16 16 15 15 16 17 18 19 19 19 19 19 21 21 20 18 18 17 18 18 20 20 20 21 22 24 25 28
32 35 34 30 28 28 28 29 30 31 32 33 33 32 31 32 34 34 32 29 28 26 26 27 27 27 26 25 24 24 23 22 22 21 21 21 22 22 21 20 20 20 20 20 20 19 19 19 19 20 20 20 20 20 20 19 18 16 15 16 18 18 17 14 13 13 13 14 14 15 14 14 15 14 14 13 13 12 12 13 14 14 15 16 18 19 20
31 34 35 32 28 28 29 31 32 33 33 33 32 32 32 34 34 32 29 26 25 24 25 26 26 26 25 25 24 23 23 23 22 22 22 22 23 22 21 21 20 20 20 20 20 20 20 20 20 20 21 21 21 20 20 20 19 18 17 17 19 20 20 19 17 15 13 11 11 12 12 12 11 11 12 13 14 14 15 15 15 15 15 14 14 14 14
30 34 36 34 30 29 30 32 32 32 31 31 32 32 32 32 31 28 26 25 24 24 25 26 26 25 25 24 24 23 23 23 23 23 23 23 23 22 21 21 21 21 20 20 19 19 19 20 20 20 21 21 21 21 20 20 20 20 20 19 20 21 21 21 20 18 15 13 12 12 12 12 12 12 14 16 17 18 18 17 17 17 16 16 15 14 13
27 32 36 37 35 33 32 32 32 31 31 32 33 33 32 30 28 26 25 24 23 23 24 25 25 25 24 23 23 23 23 23 24 23 23 23 23 21 20 20 21 21 21 20 19 18 18 19 19 19 20 20 21 21 21 20 20 20 21 22 23 22 21 21 21 19 17 15 14 13 13 13 14 15 16 17 18 19 18 18 17 17 17 16 14 13 13
24 29 34 37 38 37 35 34 34 34 34 34 33 32 30 29 27 25 24 23 23 23 24 24 25 25 24 24 23 23 23 23 24 23 23 23 22 20 19 20 21 21 21 20 19 18 18 18 19 19 19 20 21 21 21 21 21 22 23 24 24 23 22 22 21 20 19 17 15 14 15 16 17 19 20 20 19 19 18 18 18 17 17 16 15 14 14
23 28 34 37 38 38 38 36 35 35 35 33 31 29 28 27 26 24 23 23 23 24 24 24 25 26 25 25 24 23 23 23 23 23 22 22 21 20 19 19 20 21 21 20 19 18 18 18 18 18 19 20 21 21 22 22 23 23 24 25 25 25 24 24 23 23 22 20 19 17 17 18 20 21 22 21 20 19 18 18 18 17 17 16 16 15 15
20 24 29 34 36 37 37 36 35 34 33 31 29 28 28 26 25 24 23 22 23 24 24 25 26 26 26 26 25 24 23 22 22 22 22 22 21 20 19 19 20 21 20 20 20 19 17 17 17 18 19 19 20 21 22 22 23 23 23 24 25 25 25 26 25 23 22 22 22 21 19 20 22 23 23 22 21 20 19 18 18 18 17 16 16 16 16
18 20 24 28 31 33 34 34 33 32 31 29 28 28 27 26 25 25 24 23 23 24 24 25 26 26 26 26 25 25 24 23 22 22 22 22 22 21 20 19 19 20 20 20 19 18 17 17 17 18 18 18 19 19 20 21 22 23 24 24 24 25 26 26 25 24 23 25 26 24 22 22 23 24 24 24 22 20 19 20 19 18 17 16 16 16 16
19 20 22 24 26 28 29 30 30 30 29 28 28 28 27 27 26 26 25 25 24 24 25 25 25 26 26 26 25 25 25 24 24 23 23 23 22 21 20 19 19 19 19 19 19 18 17 17 17 17 17 18 18 18 19 20 21 22 23 24 25 25 26 26 26 26 26 26 26 26 25 23 23 23 23 23 22 21 21 21 20 19 18 19 19 18 18
19 21 22 23 23 25 26 27 28 28 28 28 28 28 28 27 26 26 26 25 25 25 25 26 26 25 25 25 26 26 26 25 25 25 24 23 22 21 20 20 19 19 19 19 18 18 18 17 17 17 17 17 18 18 19 19 20 21 22 23 24 25 26 26 26 27 26 26 25 26 25 23 22 22 23 24 25 24 23 22 21 21 21 21 20 19 18
17 18 20 21 22 23 25 26 27 27 27 27 27 27 27 27 26 26 25 25 25 26 26 26 26 26 26 27 27 27 26 25 25 24 23 23 22 20 20 20 19 19 19 18 18 18 18 17 18 18 18 18 18 18 18 18 18 18 19 20 21 23 24 24 25 25 26 26 26 27 27 26 25 25 26 28 29 28 25 23 23 24 23 22 21 21 21
15 16 17 18 19 20 22 24 26 27 27 26 26 27 27 27 27 26 25 25 26 27 28 27 27 27 27 26 25 24 23 22 22 22 22 22 21 20 19 19 19 19 18 18 18 18 17 17 17 18 18 18 17 17 17 17 17 17 17 17 18 19 21 22 22 23 24 25 26 28 28 28 28 29 31 33 33 30 27 26 25 24 24 24 24 24 23
15 15 16 16 17 17 18 20 22 24 25 26 26 26 27 27 27 26 26 26 27 28 28 27 26 25 24 23 22 21 20 19 20 20 20 20 19 19 19 19 19 18 18 18 18 17 17 17 17 17 18 17 17 17 17 17 17 16 15 15 16 17 18 19 19 20 21 23 25 25 25 27 30 33 35 35 33 30 28 27 26 25 25 26 26 25 24
15 15 16 16 16 16 16 17 18 20 22 24 25 25 25 25 25 24 24 25 26 26 25 24 23 22 20 19 19 18 18 17 17 17 18 18 18 18 18 18 18 18 18 18 17 17 17 17 17 17 17 16 16 16 16 16 14 13 12 13 13 14 16 18 19 20 21 22 23 22 21 23 27 31 32 31 29 27 26 25 25 25 26 27 27 26 24
15 15 15 16 16 16 15 16 17 18 19 21 22 22 22 22 22 22 22 23 23 23 22 21 20 19 18 17 17 16 16 16 16 15 15 16 16 16 17 17 17 17 18 17 17 17 17 18 17 16 15 14 13 14 14 13 12 10 9 9 10 10 12 14 17 20 21 22 22 21 19 19 20 22 23 22 21 20 21 22 24 25 26 27 27 25 23
15 15 15 15 15 15 16 16 16 16 17 19 19 19 20 20 20 20 20 21 21 20 19 18 17 16 16 16 15 15 15 14 14 14 14 14 15 16 17 17 17 17 18 18 17 16 16 17 16 15 13 13 13 14 14 13 11 10 10 10 10 11 11 12 14 16 18 20 22 23 23 22 21 21 20 18 16 16 17 19 20 21 21 21 21 21 20
14 14 14 15 15 15 16 16 16 16 17 18 18 18 19 19 19 19 19 20 20 19 19 18 16 15 15 15 15 14 14 13 13 12 12 13 14 15 16 16 17 17 18 19 18 17 16 17 16 15 14 14 15 16 16 15 14 13 13 13 13 13 14 14 14 15 15 16 18 19 21 22 21 20 19 16 13 12 12 13 13 14 15 15 16 16 17
14 14 14 15 15 14 15 16 16 17 18 18 19 19 19 19 18 18 19 19 18 18 18 17 16 15 15 15 15 14 14 13 12 10 11 12 13 14 14 14 15 15 17 18 18 17 17 17 16 16 16 16 18 19 19 18 17 16 15 14 14 15 15 15 15 14 14 14 14 14 15 15 15 14 12 10 8 8 8 9 10 11 12 13 14 15 17
13 14 15 15 15 15 15 16 17 18 19 19 19 19 19 18 18 18 18 18 17 17 17 17 16 15 15 15 15 15 14 13 11 9 10 10 11 11 11 11 11 12 13 15 16 16 16 16 16 15 16 17 18 18 17 16 15 14 13 13 13 13 12 12 12 11 11 10 9 9 8 8 8 7 7 7 7 7 8 9 10 12 13 14 16 17 18
13 14 15 16 16 16 16 17 17 18 18 19 19 19 19 19 18 18 19 19 18 18 18 18 17 16 15 15 15 15 15 14 11 9 9 10 9 9 8 7 7 7 9 11 12 13 13 13 13 13 13 12 12 12 11 11 11 11 11 11 10 10 9 9 9 9 8 8 7 7 7 7 7 7 7 7 8 9 11 12 13 15 16 17 18 19 20
12 13 14 15 16 16 16 16 17 17 17 17 18 18 19 19 19 19 19 19 19 19 20 19 18 17 16 16 15 16 16 15 13 10 10 10 10 8 6 5 5 6 6 7 7 8 8 8 8 8 8 8 8 8 8 9 10 10 10 10 9 9 9 8 8 7 7 7 7 7 7 7 8 9 10 11 12 13 14 15 16 17 18 19 20 20 21
12 13 14 15 15 15 15 16 16 16 17 17 17 18 19 19 19 19 19 19 20 21 21 21 20 19 18 17 16 17 18 17 14 12 12 12 11 9 8 7 6 6 6 7 7 7 7 7 8 8 9 9 9 9 10 10 10 9 9 9 8 8 7 7 7 7 7 8 8 9 10 11 11 12 13 14 15 16 16 17 18 18 19 20 20 21 22
13 13 14 15 15 15 15 15 16 16 17 18 18 19 19 19 19 19 18 19 19 21 22 22 22 22 21 19 18 18 19 18 16 14 13 13 12 11 10 9 8 7 7 6 6 6 6 7 7 8 9 9 10 10 10 10 10 9 9 9 9 9 9 9 9 9 10 11 11 12 13 13 14 15 15 16 16 17 18 18 19 19 20 20 21 22 23
Wind_Direction
252 253 256 256 256 259 262 266 269 271 274 275 275 275 275 277 278 277 277 276 271 272 278 279 275 276 279 280 273 265 258 253 252 252 253 253 254 256 258 255 247 240 239 242 245 247 246 241 237 237 239 242 244 247 248 248 247 243 237 233 234 239 241 240 240 240 240 240 239 236 234 235 236 237 235 233 232 233 234 235 235 235 236 237 237 236 236
254 253 254 255 257 261 262 264 267 269 271 271 271 273 273 273 274 273 272 272 270 271 275 272 269 272 277 280 279 272 263 256 253 253 253 254 254 256 257 257 253 246 241 241 242 244 247 246 242 238 238 240 243 246 249 249 249 247 241 235 232 236 239 240 240 241 241 241 241 240 238 237 237 238 239 237 234 232 234 237 239 239 239 240 240 238 238
256 254 255 256 255 257 259 259 261 265 269 271 270 271 271 271 271 269 268 269 270 271 271 268 269 272 273 275 279 278 272 264 257 255 256 255 255 255 256 255 254 249 244 241 241 242 243 245 245 242 239 240 242 244 247 250 250 249 245 239 234 235 237 238 239 240 241 241 241 241 240 239 238 238 240 240 238 235 234 236 239 240 241 242 242 241 241
259 257 255 257 258 258 257 257 259 264 268 270 271 269 269 269 269 268 268 267 267 268 268 267 270 272 272 272 274 276 276 273 266 260 258 257 255 254 254 255 254 251 246 242 241 242 242 243 244 244 242 240 241 242 244 248 250 249 247 242 237 236 237 238 238 238 239 240 240 240 240 240 239 238 239 240 240 238 236 236 237 238 240 242 243 243 244
259 260 258 258 261 261 258 256 260 266 270 272 273 271 270 269 268 268 267 264 265 267 268 268 271 274 275 273 271 272 275 277 274 268 261 257 256 253 251 253 254 253 250 245 241 241 242 243 244 244 242 241 240 240 240 242 245 246 245 243 239 236 235 237 238 239 239 238 239 240 240 240 240 239 239 239 239 239 238 237 237 237 239 241 243 245 246
254 257 258 259 261 261 260 259 263 270 275 277 276 275 273 270 268 268 266 264 264 266 267 268 272 274 275 274 271 271 273 276 277 275 268 261 256 253 250 250 252 254 253 250 245 241 242 243 243 243 243 242 240 239 238 238 240 241 242 241 239 235 234 235 237 239 240 238 237 238 238 239 241 241 240 239 239 239 239 239 239 239 240 241 243 245 247
251 255 256 258 261 262 263 266 268 271 276 279 278 274 271 268 267 267 266 265 265 265 266 268 271 273 274 273 271 272 274 277 279 279 275 268 260 254 250 248 249 252 253 253 249 244 241 241 242 243 243 243 241 239 238 237 237 238 240 240 239 237 235 234 236 238 238 238 237 237 237 238 239 241 242 242 241 241 240 240 239 239 240 241 241 244 246
252 255 255 257 262 266 268 270 270 271 275 276 274 271 267 264 264 265 267 267 265 265 266 267 269 270 271 272 273 275 277 279 280 279 276 272 266 258 251 247 247 249 251 252 252 248 244 242 242 243 243 244 244 242 239 238 236 236 238 240 240 238 237 236 236 237 237 236 236 236 236 237 237 239 241 242 243 243 242 241 240 240 241 242 242 243 245
251 255 258 260 262 263 263 265 267 269 271 270 267 268 268 266 266 268 270 271 270 268 267 267 268 269 271 275 278 279 280 281 281 279 275 272 269 264 255 250 247 248 250 251 252 251 248 244 242 243 243 244 246 245 243 240 237 235 235 237 239 240 239 238 238 239 238 236 234 234 236 237 237 238 239 241 243 244 244 244 243 243 243 244 244 245 245
249 251 256 257 256 256 256 258 260 261 264 264 261 262 264 265 268 271 272 274 274 272 269 269 269 269 273 276 277 278 282 285 285 281 274 269 268 266 261 255 252 251 251 251 251 251 251 247 244 243 243 245 247 248 247 243 240 237 236 236 237 239 241 241 241 241 239 237 235 234 235 237 238 239 239 240 241 243 244 245 245 246 247 247 247 247 247
248 248 250 252 255 256 256 256 257 259 263 266 263 262 263 263 264 269 271 273 275 274 273 271 270 270 271 272 273 275 280 285 286 281 272 266 264 263 261 259 257 256 255 253 252 251 251 251 248 245 244 245 246 248 248 246 242 240 238 237 237 238 240 242 242 242 240 238 236 236 237 239 240 241 241 241 241 242 243 244 245 247 248 248 248 249 249
247 248 249 252 254 254 253 256 260 262 268 270 267 266 265 262 261 262 266 271 274 275 276 275 273 271 268 266 270 275 280 285 285 278 269 263 260 258 258 258 259 259 258 257 255 254 253 252 250 248 246 245 246 247 248 248 245 243 242 240 239 238 239 240 241 242 242 240 237 237 238 240 242 243 242 241 241 242 243 243 244 245 247 249 250 250 251
248 249 249 251 252 251 252 255 258 262 266 267 266 265 264 263 263 260 260 265 272 276 279 278 276 273 269 266 270 277 282 285 283 274 265 259 255 254 255 257 258 259 259 259 259 258 256 255 253 250 247 246 246 247 247 248 247 246 245 244 242 241 240 240 241 242 243 242 241 240 240 240 242 242 243 242 242 243 243 243 243 244 246 248 249 251 252
247 249 247 246 248 251 251 248 250 256 260 261 262 264 263 263 262 258 257 261 267 272 279 281 280 279 275 272 274 279 284 284 280 272 263 256 253 252 253 256 257 258 259 259 260 261 260 258 256 254 250 248 247 246 246 246 247 246 246 247 246 244 242 242 242 242 243 244 244 244 243 243 243 243 242 242 242 242 243 243 243 243 245 246 248 250 252
244 246 246 244 246 249 248 245 249 257 261 263 265 265 263 261 260 257 257 258 260 265 273 279 281 280 278 276 276 279 282 283 280 273 262 255 253 252 253 255 256 258 258 258 259 261 262 262 260 257 254 250 247 247 246 245 245 245 246 247 248 247 246 244 244 243 243 244 245 246 246 246 245 244 243 242 241 241 243 243 243 244 245 247 248 250 252
241 244 248 247 246 249 251 251 254 259 262 264 265 264 264 264 263 260 259 258 257 261 267 273 277 278 277 277 276 277 280 282 281 275 265 257 253 252 253 254 255 258 259 259 260 262 264 265 263 260 257 253 249 247 246 245 245 244 244 245 247 249 248 247 246 245 244 244 246 248 249 248 248 246 244 242 240 240 241 243 243 244 245 247 249 251 252
242 244 248 248 248 251 255 255 255 257 260 262 263 265 265 266 265 263 261 259 259 261 266 271 274 275 276 277 276 275 277 280 281 278 269 260 255 253 252 253 255 258 261 262 265 268 269 270 269 265 261 257 252 248 245 244 244 244 243 243 245 247 248 247 247 248 248 247 246 248 250 251 252 249 246 243 241 239 241 243 243 243 244 246 249 252 254
242 243 246 249 252 253 254 255 255 257 259 261 263 264 264 264 265 265 263 261 261 263 267 271 274 275 276 277 276 273 273 277 280 279 272 264 259 256 254 254 256 260 263 265 269 272 274 274 274 273 269 264 258 252 247 244 243 243 243 242 242 244 246 247 248 249 251 252 251 249 250 251 252 251 249 246 243 241 242 243 244 244 244 246 250 253 255
242 243 245 247 249 250 251 253 255 257 258 260 261 261 261 262 264 264 264 264 264 266 270 273 275 275 276 276 274 272 270 273 277 277 273 267 262 259 258 257 259 262 264 266 269 272 274 276 278 278 276 271 265 259 251 246 243 243 243 242 241 242 244 246 248 249 252 254 254 253 251 251 251 251 250 248 246 243 242 243 244 244 245 248 251 253 253
242 245 246 246 247 249 250 251 252 253 256 258 259 260 260 261 262 264 267 268 268 269 272 274 276 277 276 275 272 269 267 268 272 274 273 269 264 261 260 259 261 262 263 265 267 270 272 275 279 280 280 278 273 267 258 251 245 243 243 242 241 241 243 245 247 248 251 254 256 256 254 252 251 251 250 249 247 245 242 242 244 244 245 248 251 253 253
242 245 247 248 248 248 250 251 250 251 253 255 257 258 259 261 264 267 269 269 270 272 274 275 277 278 277 274 270 266 264 265 268 269 269 268 266 263 262 261 262 262 263 264 266 268 271 275 278 280 281 282 279 273 266 257 250 245 244 243 242 241 242 243 245 247 250 253 257 258 257 255 254 252 251 250 249 247 244 243 245 247 248 248 249 251 253
242 243 244 246 246 246 247 248 248 250 252 255 256 257 259 261 264 267 268 269 272 274 275 275 277 278 275 271 268 263 261 262 265 265 265 266 265 264 263 263 263 263 264 265 265 267 271 275 277 278 280 281 280 277 272 264 255 248 245 244 243 242 242 243 244 246 248 252 256 259 259 258 257 255 253 251 250 248 245 242 243 246 249 251 253 254 255
244 243 243 243 243 243 244 245 246 247 250 253 255 256 258 261 263 266 269 272 274 274 273 273 276 276 272 267 264 261 260 260 262 264 264 265 266 265 264 264 264 265 265 266 267 269 271 273 274 276 278 280 281 279 276 270 262 254 248 246 245 244 243 243 244 245 246 250 254 258 260 259 256 253 251 251 250 249 246 242 240 241 245 248 250 251 253
246 246 244 242 241 241 242 242 242 244 247 250 253 255 257 260 264 266 269 271 272 270 270 272 275 274 268 263 260 259 258 258 259 262 265 267 268 268 268 267 268 268 268 268 269 270 271 272 274 275 277 278 280 280 278 275 268 260 253 248 246 244 244 243 243 244 245 248 251 256 259 259 255 251 250 251 252 250 245 241 238 238 241 242 242 241 241
244 244 243 240 238 239 240 239 239 241 244 247 250 253 256 260 263 265 266 267 267 267 268 271 273 269 263 259 257 256 256 257 259 262 266 269 271 272 272 272 272 271 270 270 270 270 271 272 274 275 275 276 278 280 280 277 271 264 256 250 247 245 245 244 243 243 243 245 249 253 257 257 255 251 251 253 252 248 243 240 239 239 238 237 235 234 234
238 239 237 235 235 236 237 236 236 239 242 244 247 251 255 257 258 260 261 262 262 264 267 270 268 264 260 256 255 255 255 257 259 262 266 269 272 274 275 275 274 273 272 271 271 270 271 272 272 273 273 274 276 279 280 278 275 268 259 252 248 247 247 247 246 245 245 246 249 253 257 258 255 252 252 254 251 243 237 234 235 236 235 231 228 229 231
232 231 229 230 232 234 233 232 233 236 239 242 244 247 250 252 253 255 257 259 260 262 266 266 263 260 257 255 254 254 255 257 259 263 267 271 273 275 276 276 275 274 272 272 271 271 271 271 270 271 272 273 274 276 277 277 276 269 260 253 249 249 250 250 250 249 249 250 251 253 256 259 260 259 262 267 264 254 245 242 245 251 258 259 254 250 250
227 225 223 225 228 230 229 229 230 233 236 237 238 238 241 247 251 253 254 256 259 261 262 260 257 255 255 255 254 254 255 258 261 264 269 273 275 276 275 275 275 274 273 273 272 271 270 269 268 268 269 271 272 273 273 273 272 268 261 255 251 250 251 251 251 251 251 251 253 254 255 259 264 269 272 276 277 274 270 268 269 270 273 275 273 267 260
224 221 220 222 224 224 223 223 224 226 228 229 230 230 233 240 247 252 254 256 258 258 257 255 253 253 254 254 253 252 254 258 261 265 270 274 277 276 275 274 274 274 274 273 271 270 269 268 267 267 266 267 268 269 268 267 265 263 259 253 249 250 252 251 250 250 250 249 249 251 254 257 264 273 278 278 276 275 272 270 269 266 262 260 257 253 251
224 220 218 220 221 220 220 220 220 221 223 225 228 229 230 234 243 250 254 255 254 253 252 251 250 251 252 252 251 252 255 258 261 265 269 274 277 277 275 273 273 273 273 273 272 270 269 268 266 265 264 264 264 265 266 264 260 258 255 251 248 249 254 256 254 253 253 250 247 247 250 254 259 267 275 277 276 273 271 268 263 257 251 248 246 244 244
224 219 218 219 217 215 218 219 217 217 220 222 225 228 232 238 245 249 251 251 249 248 248 248 248 249 250 250 251 254 256 258 260 263 269 274 277 276 274 273 271 271 271 271 272 271 269 266 263 262 261 262 262 263 263 262 258 254 253 252 249 247 250 255 260 262 262 258 254 250 249 250 254 261 269 275 277 277 276 272 268 262 257 254 252 251 250
226 219 218 218 215 213 215 217 216 217 220 224 228 233 240 245 248 248 248 248 246 244 244 245 246 247 248 250 252 255 257 259 260 263 269 274 276 276 274 271 269 268 269 270 271 271 269 265 262 260 259 259 260 260 259 259 257 254 252 252 252 251 251 253 257 259 257 254 253 254 255 256 260 267 274 279 281 281 278 274 269 265 262 259 258 258 260
226 220 218 219 219 219 219 221 222 225 229 234 238 241 243 244 245 246 247 247 244 243 243 244 244 245 247 250 253 257 259 261 262 265 270 275 276 275 273 270 268 267 267 269 271 272 270 266 262 259 257 256 256 257 255 254 253 251 250 251 253 254 254 254 255 256 255 251 247 250 258 263 266 269 274 278 278 277 274 270 266 263 261 261 262 263 263
220 216 216 218 221 224 226 229 232 235 238 240 241 240 239 238 240 243 245 245 244 243 243 243 244 245 246 250 254 258 260 261 263 266 270 274 275 274 272 270 268 267 267 270 274 276 275 269 263 259 256 254 254 254 253 251 250 248 248 249 249 251 254 256 258 259 260 257 253 252 259 266 269 269 269 271 272 270 266 262 258 256 255 257 260 262 262
216 213 213 215 217 220 224 227 231 234 236 237 237 235 234 233 236 240 242 242 242 243 244 245 245 246 247 250 254 258 260 261 263 266 269 272 274 274 272 269 268 267 269 272 276 279 277 273 266 260 256 254 252 251 251 251 251 249 248 248 248 248 250 253 257 261 264 266 265 264 266 270 270 267 264 263 262 261 258 256 255 254 252 250 250 250 249
224 218 216 216 217 218 220 222 225 228 230 231 231 232 232 232 235 238 239 240 240 242 244 245 246 247 248 251 253 256 259 261 263 265 268 270 273 275 274 271 268 268 270 273 276 277 276 272 267 263 259 256 254 252 251 252 252 252 252 251 250 248 248 250 253 256 258 260 261 261 264 267 266 262 256 252 249 247 247 249 250 250 249 247 245 243 240
231 227 224 221 220 221 223 224 224 226 228 228 228 230 232 233 235 237 238 239 241 242 243 244 245 246 248 250 252 255 257 259 262 264 266 269 272 275 277 275 271 269 270 272 275 276 275 271 266 263 261 259 257 255 254 253 253 253 253 252 251 250 249 248 248 247 246 249 254 256 258 261 262 258 251 244 239 238 239 241 241 242 243 243 244 244 242
233 232 231 229 226 226 227 228 229 230 231 230 230 231 233 234 236 238 240 241 243 244 244 245 246 247 249 251 253 255 257 259 261 263 265 268 272 276 279 279 276 273 272 273 274 274 273 270 267 264 262 260 258 257 256 255 255 254 254 253 251 250 249 248 247 245 243 246 251 253 254 257 262 263 258 251 245 242 240 239 239 241 244 244 243 243 242
233 234 234 234 232 231 231 232 232 232 233 233 233 234 235 236 237 240 242 244 245 246 247 247 248 249 251 252 254 256 257 258 260 262 265 269 272 276 279 280 278 275 273 272 271 270 270 270 268 265 262 259 258 257 257 256 254 253 253 252 251 250 249 247 247 245 243 243 247 250 252 256 264 268 266 263 259 253 247 245 248 251 251 249 245 242 240
234 235 236 236 236 236 235 235 235 235 235 235 235 236 237 237 239 241 243 244 245 246 247 248 248 249 251 252 254 256 258 258 259 261 264 268 271 275 278 279 278 276 273 270 267 266 266 266 266 263 261 260 260 260 259 257 254 251 250 250 250 250 249 247 246 246 243 240 241 247 252 257 262 264 264 263 260 254 248 246 248 249 249 247 245 241 238
234 236 238 238 238 238 238 238 238 237 236 235 235 236 238 239 240 241 243 243 244 245 246 247 247 248 249 251 254 256 257 257 258 260 263 267 270 273 275 276 276 274 270 265 262 260 259 259 259 260 261 261 262 262 262 259 256 253 251 249 249 249 248 246 246 245 240 237 240 246 251 255 258 261 261 259 255 251 248 247 248 248 247 246 244 242 241
235 237 239 240 240 239 239 238 238 236 234 233 233 234 236 238 240 241 241 241 242 243 245 245 246 246 247 248 250 253 255 256 258 260 263 267 269 271 272 273 272 269 264 259 256 255 256 256 256 258 261 263 264 264 261 258 255 254 253 251 250 248 246 245 244 241 238 237 240 247 253 256 257 258 258 257 253 251 252 254 255 254 252 249 246 245 244
238 238 239 240 240 239 237 236 235 234 231 230 229 231 233 236 238 239 239 239 240 242 243 243 243 242 242 243 247 251 255 257 259 262 263 265 267 268 269 270 269 265 260 255 251 249 252 254 255 257 261 264 265 261 254 248 244 244 247 247 246 244 243 240 237 234 233 234 236 242 252 260 261 260 260 260 259 257 259 263 266 266 262 257 254 249 244
240 239 238 239 240 239 237 235 233 232 231 230 229 229 230 232 233 232 232 233 235 238 240 240 240 239 241 243 247 252 256 260 262 263 263 264 265 267 268 268 265 261 256 251 246 243 246 250 253 255 258 257 252 243 235 230 228 229 234 240 245 246 245 242 238 236 236 237 238 240 246 252 255 255 256 260 264 266 269 272 274 274 271 266 260 255 250
241 239 238 238 237 237 236 235 232 230 231 231 229 227 226 227 227 228 228 230 232 234 235 236 238 241 244 246 248 251 256 259 261 263 264 267 269 269 268 266 263 258 251 247 244 241 241 243 247 249 248 242 233 225 219 220 226 235 244 252 257 259 260 260 256 249 244 243 244 245 248 250 251 251 252 254 258 263 267 269 271 271 269 265 261 258 256
241 238 236 236 236 234 234 234 231 229 230 231 230 228 226 225 226 228 231 231 232 232 232 232 236 241 245 246 248 250 253 255 256 261 268 272 273 271 268 264 260 256 250 246 242 238 236 238 241 240 234 229 227 225 224 229 240 251 258 261 263 266 268 267 264 259 253 248 246 247 248 249 250 251 250 250 252 257 261 263 264 264 262 260 259 259 260
240 238 236 237 238 237 235 233 232 231 231 232 232 231 231 230 229 229 229 228 229 231 233 233 235 239 241 243 246 249 248 247 249 258 269 275 274 271 268 262 256 252 249 246 241 237 235 237 239 236 230 226 227 230 234 242 250 257 261 261 263 265 265 263 258 252 248 244 241 238 237 237 237 238 239 239 240 244 248 251 253 255 257 259 262 264 266
237 237 239 240 241 241 239 235 233 232 232 233 233 234 235 234 231 229 226 226 229 233 234 234 234 235 235 239 243 245 242 239 240 251 264 270 270 268 264 257 250 245 243 241 238 235 234 236 238 238 235 232 232 235 240 247 254 256 256 256 254 253 250 245 238 232 227 222 218 215 214 213 213 213 215 218 224 232 241 248 254 258 261 265 268 270 273
232 235 239 241 242 241 240 238 236 235 234 235 236 236 237 236 234 230 227 228 231 233 233 233 233 230 230 235 240 240 235 231 231 239 251 258 260 258 254 246 233 225 224 226 227 228 229 231 233 234 233 231 231 232 236 239 240 237 233 229 224 217 209 202 196 192 188 187 186 186 188 193 201 209 219 230 239 246 251 255 258 261 264 268 271 275 278
231 233 236 239 240 239 238 238 238 238 237 237 238 239 239 238 234 230 227 228 229 230 230 230 229 226 225 231 236 236 232 227 225 228 239 246 244 237 230 218 200 187 183 185 189 191 192 192 192 192 191 189 190 196 201 205 205 205 204 201 198 194 189 185 183 183 187 194 202 210 219 226 233 239 243 247 251 254 257 260 263 266 269 272 275 278 280
232 232 233 235 236 237 237 236 237 237 237 237 237 237 237 236 234 231 229 229 229 229 229 229 226 223 225 230 233 233 230 227 223 223 232 238 237 229 221 211 200 187 177 170 164 161 160 161 161 162 164 168 175 183 189 193 197 199 202 205 207 207 208 210 214 220 228 234 239 243 246 248 250 252 254 256 258 261 263 266 268 270 273 276 278 280 282
233 233 234 235 236 237 238 238 238 237 237 236 234 233 232 232 232 232 230 228 227 228 230 229 226 223 224 227 229 229 228 226 224 223 228 234 235 231 226 222 216 207 199 190 183 182 182 183 182 183 187 190 195 198 201 206 210 215 219 224 227 230 233 236 238 241 245 249 253 255 257 258 260 262 264 266 268 269 270 272 274 276 278 280 281 281 281
Height
5856 5857 5858 5859 5859 5859 5859 5859 5860 5860 5860 5861 5861 5861 5861 5861 5862 5861 5860 5860 5860 5859 5859 5859 5859 5859 5859 5859 5859 5858 5859 5859 5859 5859 5859 5859 5860 5860 5861 5861 5862 5863 5864 5864 5865 5865 5865 5866 5867 5868 5870 5871 5872 5873 5875 5876 5877 5878 5880 5882 5884 5885 5887 5889 5890 5891 5892 5893 5894 5895 5896 5897 5898 5899 5900 5901 5902 5904 5905 5906 5907 5908 5908 5909 5910 5911 5912
5854 5854 5855 5856 5856 5857 5857 5857 5858 5858 5858 5858 5858 5858 5858 5858 5859 5858 5857 5857 5857 5857 5857 5857 5857 5857 5857 5856 5856 5856 5856 5856 5856 5856 5857 5857 5857 5857 5858 5859 5859 5860 5861 5862 5863 5863 5863 5864 5865 5866 5867 5868 5869 5871 5872 5873 5874 5875 5877 5879 5881 5882 5884 5886 5887 5888 5889 5890 5892 5893 5895 5896 5896 5897 5898 5899 5900 5901 5903 5904 5905 5906 5907 5907 5908 5909 5910
5850 5851 5852 5852 5853 5854 5854 5854 5855 5855 5855 5855 5855 5855 5855 5855 5855 5855 5854 5855 5854 5854 5854 5854 5854 5855 5854 5854 5854 5853 5853 5853 5853 5854 5854 5854 5854 5855 5855 5856 5856 5857 5858 5859 5860 5861 5861 5862 5862 5863 5864 5865 5866 5867 5869 5870 5871 5872 5874 5876 5877 5879 5881 5882 5883 5884 5886 5887 5889 5890 5892 5893 5895 5895 5896 5897 5898 5899 5900 5901 5902 5903 5904 5905 5906 5907 5908
5846 5847 5848 5849 5850 5850 5850 5851 5852 5852 5852 5852 5852 5852 5852 5852 5852 5851 5851 5852 5851 5851 5851 5851 5851 5852 5852 5851 5851 5851 5850 5850 5850 5851 5851 5851 5851 5852 5852 5853 5853 5854 5855 5856 5857 5858 5859 5859 5860 5861 5862 5862 5863 5864 5866 5867 5868 5870 5871 5873 5874 5876 5877 5878 5880 5881 5882 5884 5886 5887 5889 5890 5892 5893 5894 5895 5897 5898 5898 5899 5899 5901 5902 5903 5904 5904 5906
5843 5842 5844 5845 5845 5845 5846 5847 5848 5848 5848 5849 5848 5848 5848 5848 5848 5848 5848 5848 5848 5848 5848 5848 5848 5848 5848 5848 5848 5848 5847 5847 5847 5847 5848 5848 5848 5848 5849 5849 5850 5851 5851 5852 5854 5854 5856 5857 5857 5858 5859 5860 5860 5861 5862 5864 5865 5866 5868 5869 5870 5872 5873 5874 5876 5877 5879 5881 5882 5884 5886 5887 5888 5890 5891 5893 5894 5895 5896 5897 5897 5898 5899 5900 5901 5902 5903
5840 5838 5840 5841 5840 5840 5842 5843 5844 5845 5845 5845 5845 5845 5845 5845 5845 5845 5845 5844 5845 5845 5845 5845 5845 5845 5845 5845 5845 5845 5845 5844 5844 5844 5844 5844 5845 5845 5845 5846 5847 5848 5848 5849 5850 5851 5852 5853 5854 5855 5855 5856 5857 5858 5859 5860 5861 5863 5864 5866 5867 5868 5869 5871 5872 5874 5875 5877 5879 5881 5882 5883 5885 5886 5888 5890 5891 5892 5893 5894 5896 5896 5896 5897 5898 5899 5900
5836 5835 5836 5837 5835 5837 5839 5840 5841 5841 5841 5842 5842 5842 5841 5841 5841 5841 5841 5841 5842 5842 5842 5842 5842 5842 5842 5842 5842 5842 5842 5842 5841 5841 5841 5841 5841 5842 5842 5843 5844 5844 5845 5846 5847 5848 5849 5849 5850 5851 5852 5853 5854 5855 5856 5857 5858 5859 5861 5862 5863 5864 5866 5867 5868 5870 5871 5874 5876 5877 5878 5879 5881 5883 5885 5887 5888 5889 5890 5891 5892 5893 5893 5894 5895 5895 5896
5832 5831 5832 5833 5832 5834 5835 5836 5837 5838 5838 5838 5838 5838 5838 5838 5838 5838 5838 5838 5839 5839 5839 5839 5839 5839 5839 5839 5839 5839 5839 5839 5838 5838 5838 5838 5838 5838 5839 5840 5841 5841 5842 5843 5843 5844 5845 5846 5847 5848 5849 5850 5851 5851 5852 5854 5855 5856 5857 5859 5860 5861 5862 5863 5865 5866 5867 5869 5871 5873 5874 5876 5877 5879 5881 5883 5884 5885 5886 5888 5889 5889 5890 5890 5891 5892 5893
5828 5829 5829 5829 5829 5830 5831 5832 5833 5834 5834 5835 5835 5835 5835 5835 5835 5835 5835 5836 5836 5836 5836 5836 5836 5836 5836 5836 5836 5836 5835 5835 5835 5835 5835 5835 5835 5835 5836 5836 5837 5838 5839 5839 5840 5840 5842 5843 5844 5845 5846 5847 5848 5848 5849 5850 5852 5853 5854 5855 5856 5857 5858 5860 5861 5861 5863 5864 5867 5869 5870 5872 5874 5876 5877 5878 5879 5880 5882 5884 5885 5886 5886 5887 5888 5889 5890
5825 5826 5826 5825 5825 5826 5827 5829 5830 5830 5830 5831 5832 5832 5832 5832 5833 5833 5833 5833 5833 5833 5833 5833 5833 5833 5834 5834 5833 5833 5832 5832 5832 5832 5832 5832 5832 5832 5833 5833 5834 5835 5835 5836 5837 5837 5838 5839 5840 5841 5842 5843 5844 5845 5846 5847 5848 5849 5850 5851 5852 5853 5855 5856 5857 5858 5858 5860 5862 5864 5866 5868 5870 5872 5873 5874 5875 5876 5877 5879 5881 5882 5883 5884 5885 5886 5886
5819 5821 5822 5822 5822 5823 5824 5825 5826 5827 5828 5828 5828 5829 5830 5830 5830 5830 5830 5830 5830 5830 5830 5830 5830 5831 5831 5831 5831 5830 5830 5829 5829 5829 5828 5829 5829 5829 5830 5830 5831 5832 5832 5833 5834 5834 5835 5836 5837 5838 5839 5839 5840 5841 5842 5843 5844 5845 5846 5847 5848 5850 5851 5852 5853 5854 5855 5856 5858 5860 5863 5865 5866 5868 5869 5870 5870 5871 5872 5874 5876 5878 5879 5880 5880 5881 5883
5815 5816 5818 5819 5820 5821 5821 5822 5823 5824 5824 5824 5825 5827 5827 5827 5827 5827 5827 5828 5827 5827 5827 5827 5827 5828 5829 5828 5828 5827 5827 5826 5826 5825 5825 5826 5826 5826 5827 5827 5828 5829 5829 5830 5830 5831 5831 5832 5833 5834 5835 5835 5836 5837 5838 5840 5841 5841 5842 5843 5845 5846 5847 5848 5849 5850 5851 5853 5854 5856 5858 5860 5861 5863 5864 5865 5866 5867 5868 5870 5872 5873 5874 5875 5876 5877 5878
5810 5812 5814 5815 5816 5816 5817 5819 5820 5821 5821 5822 5822 5823 5824 5823 5824 5825 5825 5825 5825 5825 5825 5824 5824 5825 5825 5825 5825 5824 5824 5824 5823 5822 5822 5823 5823 5824 5824 5825 5825 5826 5826 5827 5827 5828 5828 5829 5829 5830 5831 5832 5832 5833 5835 5836 5837 5838 5839 5840 5840 5841 5842 5844 5845 5847 5848 5849 5851 5852 5854 5854 5855 5857 5859 5860 5861 5862 5864 5866 5867 5868 5869 5870 5871 5873 5874
5807 5808 5809 5811 5812 5811 5812 5816 5817 5817 5818 5819 5819 5820 5820 5820 5822 5822 5822 5822 5822 5822 5822 5821 5821 5821 5821 5821 5821 5821 5821 5821 5820 5820 5820 5820 5820 5821 5821 5822 5822 5823 5823 5824 5824 5824 5825 5825 5826 5826 5827 5828 5828 5829 5830 5832 5833 5834 5835 5836 5836 5837 5838 5839 5841 5843 5844 5845 5846 5847 5848 5849 5850 5852 5853 5855 5856 5857 5859 5860 5862 5863 5864 5865 5867 5869 5870
5803 5803 5804 5806 5807 5807 5809 5813 5813 5813 5815 5816 5815 5816 5816 5817 5819 5819 5819 5820 5820 5819 5819 5819 5818 5818 5818 5818 5818 5818 5818 5817 5817 5817 5817 5817 5818 5818 5818 5819 5819 5820 5820 5821 5821 5821 5822 5822 5822 5822 5823 5823 5824 5825 5826 5827 5829 5830 5831 5832 5832 5833 5834 5835 5836 5838 5839 5841 5841 5842 5843 5843 5845 5846 5848 5849 5850 5852 5853 5854 5856 5857 5859 5861 5863 5864 5864
5797 5798 5799 5801 5802 5803 5806 5809 5809 5810 5812 5812 5811 5812 5812 5814 5815 5815 5815 5816 5816 5816 5816 5816 5815 5815 5815 5815 5816 5816 5815 5814 5814 5814 5814 5814 5815 5815 5815 5816 5816 5816 5817 5817 5818 5818 5818 5819 5819 5818 5818 5819 5820 5821 5822 5823 5824 5826 5827 5828 5829 5829 5830 5831 5832 5833 5834 5836 5837 5837 5837 5838 5840 5842 5843 5843 5845 5847 5847 5848 5850 5852 5854 5856 5858 5859 5859
5794 5795 5794 5795 5797 5800 5802 5804 5805 5807 5808 5808 5808 5809 5809 5811 5811 5811 5812 5812 5812 5813 5813 5813 5812 5812 5812 5812 5813 5812 5812 5812 5811 5811 5811 5812 5812 5812 5813 5813 5813 5814 5814 5814 5815 5815 5815 5815 5815 5815 5815 5815 5815 5816 5817 5819 5820 5821 5823 5824 5825 5826 5826 5827 5828 5828 5829 5831 5832 5832 5832 5833 5835 5837 5838 5838 5839 5841 5841 5842 5844 5847 5848 5850 5852 5853 5854
5790 5791 5790 5791 5793 5796 5798 5799 5801 5802 5803 5804 5805 5805 5806 5807 5808 5807 5808 5808 5809 5810 5809 5809 5809 5808 5808 5809 5809 5809 5809 5809 5809 5808 5808 5809 5809 5809 5810 5810 5810 5811 5811 5811 5812 5812 5812 5812 5812 5812 5811 5811 5811 5812 5813 5815 5816 5817 5818 5819 5821 5822 5822 5823 5824 5825 5825 5826 5827 5827 5828 5829 5831 5831 5832 5832 5834 5836 5837 5837 5839 5842 5844 5845 5847 5848 5849
5784 5785 5786 5787 5789 5791 5793 5795 5796 5797 5798 5799 5801 5801 5802 5803 5803 5803 5804 5805 5805 5806 5806 5805 5805 5805 5805 5805 5806 5806 5806 5806 5806 5806 5806 5806 5806 5806 5807 5807 5807 5808 5808 5808 5809 5809 5809 5809 5809 5808 5808 5808 5808 5808 5809 5810 5811 5812 5813 5815 5816 5817 5818 5819 5820 5821 5821 5822 5822 5823 5824 5825 5826 5826 5827 5828 5829 5830 5832 5833 5835 5837 5839 5841 5842 5843 5844
5778 5779 5781 5783 5784 5786 5789 5790 5791 5792 5793 5795 5796 5797 5798 5798 5799 5800 5800 5801 5802 5802 5802 5802 5802 5801 5801 5802 5802 5802 5802 5803 5803 5803 5803 5803 5803 5804 5804 5804 5804 5804 5805 5805 5805 5805 5805 5805 5805 5805 5805 5805 5805 5805 5805 5805 5806 5807 5809 5810 5812 5813 5814 5815 5816 5816 5817 5818 5818 5819 5819 5820 5821 5821 5822 5823 5824 5825 5827 5829 5830 5832 5834 5835 5836 5837 5837
5773 5774 5775 5777 5780 5782 5783 5785 5786 5787 5789 5790 5792 5793 5793 5794 5795 5796 5797 5797 5798 5798 5798 5798 5798 5798 5798 5798 5798 5798 5799 5799 5800 5800 5800 5800 5800 5801 5801 5801 5801 5801 5801 5802 5802 5802 5802 5802 5802 5802 5802 5802 5802 5802 5801 5801 5802 5803 5804 5806 5807 5809 5810 5811 5812 5812 5813 5814 5814 5815 5815 5815 5816 5817 5818 5818 5819 5819 5822 5824 5824 5826 5828 5829 5829 5830 5831
5766 5767 5768 5771 5774 5776 5777 5778 5781 5783 5784 5786 5787 5788 5789 5790 5791 5792 5793 5794 5794 5795 5795 5795 5795 5795 5794 5794 5795 5795 5795 5796 5796 5797 5797 5797 5797 5798 5798 5798 5798 5798 5798 5799 5798 5799 5799 5799 5799 5799 5799 5799 5799 5798 5798 5798 5798 5799 5800 5801 5803 5804 5806 5807 5808 5809 5810 5810 5810 5811 5810 5811 5811 5811 5812 5813 5813 5814 5816 5818 5818 5820 5822 5823 5823 5824 5824
5759 5760 5762 5767 5769 5769 5771 5773 5776 5778 5779 5781 5783 5784 5785 5786 5787 5788 5789 5790 5790 5791 5791 5791 5791 5791 5791 5791 5791 5792 5792 5793 5793 5794 5794 5794 5794 5795 5795 5795 5795 5795 5795 5795 5795 5795 5796 5796 5795 5796 5796 5795 5795 5795 5795 5795 5794 5795 5796 5797 5799 5801 5802 5802 5803 5804 5806 5807 5807 5807 5807 5806 5806 5806 5806 5807 5807 5808 5810 5812 5813 5815 5816 5817 5819 5819 5817
5753 5755 5758 5761 5763 5764 5765 5768 5770 5773 5775 5776 5778 5780 5781 5782 5783 5784 5785 5786 5786 5787 5787 5788 5788 5788 5788 5788 5788 5789 5789 5790 5790 5790 5791 5791 5791 5791 5791 5791 5792 5792 5792 5792 5792 5792 5793 5793 5793 5793 5793 5792 5792 5792 5792 5792 5791 5792 5792 5793 5795 5796 5797 5798 5799 5800 5801 5802 5803 5803 5803 5802 5802 5802 5802 5803 5804 5804 5805 5806 5808 5809 5809 5810 5813 5814 5811
5748 5749 5752 5755 5757 5759 5760 5763 5766 5768 5770 5772 5773 5775 5776 5778 5779 5780 5781 5782 5783 5783 5784 5784 5784 5784 5784 5784 5785 5785 5786 5787 5787 5787 5788 5788 5788 5788 5788 5788 5789 5789 5789 5789 5789 5789 5790 5790 5790 5790 5790 5789 5789 5789 5789 5789 5789 5789 5789 5790 5791 5792 5793 5794 5795 5796 5797 5798 5798 5799 5799 5798 5798 5798 5798 5799 5799 5800 5801 5802 5803 5804 5802 5801 5803 5807 5806
5742 5744 5747 5749 5751 5753 5755 5758 5761 5763 5765 5767 5769 5771 5772 5773 5774 5775 5776 5778 5779 5780 5780 5780 5780 5780 5781 5781 5782 5782 5783 5784 5784 5784 5784 5785 5785 5785 5785 5785 5786 5786 5786 5787 5787 5787 5787 5787 5787 5787 5787 5786 5786 5786 5786 5786 5786 5786 5786 5787 5788 5789 5789 5790 5791 5792 5793 5794 5794 5794 5795 5795 5795 5795 5795 5794 5794 5795 5796 5798 5799 5800 5800 5798 5799 5800 5801
5737 5739 5742 5744 5746 5747 5750 5753 5755 5758 5761 5763 5765 5766 5768 5768 5769 5771 5772 5774 5775 5776 5776 5776 5777 5777 5777 5778 5778 5779 5780 5780 5781 5781 5781 5782 5782 5782 5782 5782 5783 5783 5783 5784 5784 5784 5784 5784 5784 5784 5784 5784 5784 5783 5783 5783 5783 5783 5784 5784 5785 5786 5786 5787 5788 5788 5789 5790 5790 5791 5791 5792 5792 5791 5791 5791 5791 5792 5793 5794 5796 5796 5796 5796 5796 5795 5793
5732 5734 5737 5740 5742 5743 5746 5748 5751 5754 5756 5758 5760 5761 5763 5764 5765 5766 5768 5770 5771 5772 5772 5773 5773 5773 5774 5774 5775 5776 5777 5777 5777 5778 5778 5779 5779 5779 5779 5779 5779 5780 5780 5780 5781 5781 5781 5781 5781 5781 5781 5781 5781 5781 5781 5780 5780 5781 5781 5782 5783 5783 5783 5784 5784 5785 5786 5786 5786 5787 5788 5788 5788 5788 5788 5788 5788 5788 5789 5790 5790 5790 5790 5790 5790 5789 5789
5728 5730 5733 5736 5738 5740 5742 5744 5747 5749 5751 5753 5755 5757 5759 5760 5760 5762 5764 5766 5767 5768 5769 5769 5769 5770 5771 5771 5772 5773 5773 5774 5774 5775 5776 5776 5775 5775 5776 5776 5776 5777 5777 5777 5777 5777 5778 5778 5778 5778 5778 5778 5778 5778 5778 5778 5778 5778 5779 5780 5780 5781 5781 5781 5781 5782 5783 5783 5784 5784 5784 5785 5785 5785 5785 5785 5785 5785 5786 5786 5786 5786 5786 5786 5786 5787 5787
5724 5727 5730 5732 5734 5737 5739 5741 5744 5746 5748 5750 5751 5753 5756 5756 5757 5758 5760 5762 5763 5764 5765 5765 5766 5767 5768 5768 5769 5770 5770 5771 5772 5772 5773 5772 5772 5772 5773 5773 5774 5774 5774 5774 5774 5774 5775 5775 5775 5775 5775 5775 5775 5776 5776 5776 5776 5776 5776 5777 5778 5778 5778 5779 5779 5779 5780 5780 5781 5781 5782 5782 5783 5783 5783 5783 5783 5784 5784 5784 5784 5784 5784 5784 5785 5785 5785
5720 5723 5727 5729 5731 5734 5736 5738 5740 5742 5744 5746 5747 5749 5751 5752 5753 5755 5757 5758 5759 5761 5761 5762 5763 5764 5764 5765 5765 5766 5767 5768 5769 5769 5769 5769 5769 5769 5770 5770 5770 5770 5770 5771 5771 5771 5771 5772 5772 5772 5772 5772 5773 5773 5773 5773 5773 5774 5774 5774 5775 5776 5776 5777 5777 5778 5778 5779 5779 5779 5779 5780 5780 5781 5781 5782 5782 5782 5782 5782 5783 5783 5783 5783 5783 5784 5784
5717 5720 5723 5726 5728 5730 5732 5734 5736 5738 5740 5742 5743 5745 5746 5748 5750 5752 5753 5755 5756 5757 5758 5759 5760 5761 5761 5762 5762 5763 5764 5765 5765 5766 5766 5766 5766 5766 5767 5767 5767 5767 5767 5767 5768 5768 5768 5768 5769 5769 5769 5769 5770 5770 5770 5771 5771 5771 5771 5772 5772 5773 5774 5774 5775 5776 5777 5777 5777 5778 5778 5778 5778 5779 5779 5779 5779 5780 5780 5780 5781 5781 5781 5781 5782 5782 5782
5714 5717 5720 5722 5725 5727 5729 5731 5733 5735 5736 5738 5740 5741 5743 5744 5746 5748 5750 5751 5753 5754 5755 5756 5757 5757 5758 5759 5759 5760 5761 5762 5762 5763 5763 5762 5763 5763 5764 5763 5763 5763 5764 5764 5765 5765 5765 5765 5766 5766 5766 5766 5767 5767 5768 5768 5768 5769 5769 5769 5770 5770 5771 5771 5772 5773 5774 5775 5776 5776 5776 5777 5777 5777 5777 5777 5777 5777 5778 5778 5779 5779 5779 5779 5779 5779 5779
5708 5712 5715 5717 5720 5723 5725 5727 5729 5731 5732 5734 5736 5738 5740 5742 5743 5745 5747 5748 5750 5751 5752 5753 5753 5754 5755 5756 5756 5757 5758 5758 5758 5759 5759 5759 5759 5760 5760 5760 5760 5760 5760 5761 5762 5762 5762 5762 5763 5763 5763 5763 5764 5764 5765 5765 5766 5766 5766 5767 5767 5768 5768 5768 5769 5770 5771 5772 5773 5774 5774 5775 5775 5775 5775 5775 5776 5776 5776 5776 5777 5777 5778 5778 5778 5778 5778
5704 5706 5709 5711 5714 5717 5719 5722 5724 5726 5727 5730 5732 5734 5736 5739 5741 5742 5744 5745 5746 5747 5748 5749 5750 5750 5751 5752 5753 5754 5754 5754 5755 5755 5756 5756 5756 5757 5757 5757 5757 5757 5757 5758 5758 5758 5759 5759 5759 5760 5760 5760 5761 5761 5762 5762 5762 5763 5763 5764 5764 5765 5766 5766 5766 5767 5768 5769 5770 5771 5772 5772 5772 5772 5772 5773 5773 5773 5773 5774 5774 5775 5776 5776 5777 5777 5777
5702 5704 5705 5708 5710 5712 5714 5717 5719 5721 5723 5726 5729 5731 5733 5735 5737 5739 5740 5741 5742 5743 5744 5745 5746 5747 5748 5749 5749 5750 5751 5751 5752 5752 5752 5753 5753 5753 5754 5754 5754 5754 5754 5755 5755 5755 5756 5756 5756 5757 5757 5757 5758 5758 5758 5759 5759 5759 5760 5761 5761 5762 5762 5763 5764 5765 5766 5766 5767 5768 5769 5770 5769 5769 5769 5769 5770 5770 5771 5772 5772 5773 5773 5774 5774 5775 5775
5701 5702 5704 5706 5708 5710 5712 5714 5716 5718 5720 5723 5726 5728 5729 5731 5733 5735 5736 5737 5739 5740 5741 5741 5742 5743 5744 5745 5746 5747 5747 5748 5748 5749 5749 5749 5749 5750 5750 5751 5751 5751 5751 5752 5752 5752 5753 5753 5753 5754 5754 5754 5754 5755 5755 5755 5756 5756 5756 5757 5758 5758 5759 5760 5761 5763 5763 5764 5764 5765 5766 5767 5766 5766 5766 5766 5767 5768 5769 5769 5770 5771 5772 5772 5773 5773 5773
5700 5701 5702 5704 5705 5708 5710 5712 5714 5716 5718 5720 5722 5724 5726 5728 5729 5731 5732 5734 5735 5736 5737 5738 5739 5739 5740 5741 5742 5743 5744 5745 5745 5746 5746 5746 5746 5747 5747 5748 5748 5748 5748 5749 5749 5749 5749 5750 5750 5751 5751 5751 5751 5752 5752 5752 5752 5753 5753 5754 5754 5755 5756 5757 5758 5759 5760 5761 5761 5762 5763 5763 5764 5764 5764 5764 5765 5765 5766 5767 5768 5769 5769 5770 5770 5770 5770
5698 5699 5700 5702 5703 5705 5707 5709 5711 5713 5715 5717 5719 5720 5722 5724 5726 5727 5729 5731 5732 5733 5734 5735 5735 5736 5737 5738 5738 5739 5740 5741 5742 5742 5743 5743 5743 5744 5744 5744 5745 5745 5745 5745 5746 5746 5746 5746 5747 5747 5748 5748 5748 5749 5749 5749 5749 5749 5750 5750 5751 5752 5753 5754 5755 5756 5757 5758 5759 5760 5760 5761 5761 5762 5762 5763 5763 5763 5763 5764 5765 5766 5766 5766 5767 5767 5768
5696 5697 5698 5699 5701 5703 5704 5706 5708 5710 5712 5714 5716 5718 5719 5721 5722 5724 5726 5727 5729 5729 5730 5731 5732 5733 5733 5734 5735 5736 5737 5738 5739 5739 5740 5740 5740 5741 5741 5741 5741 5742 5742 5742 5742 5743 5743 5744 5744 5744 5744 5745 5745 5746 5746 5746 5747 5747 5747 5747 5748 5749 5750 5751 5752 5753 5754 5755 5757 5757 5758 5758 5759 5760 5760 5760 5760 5760 5761 5761 5762 5762 5763 5764 5764 5765 5765
5694 5695 5696 5697 5699 5700 5701 5703 5705 5707 5709 5711 5713 5714 5716 5717 5719 5721 5723 5724 5725 5725 5726 5727 5729 5729 5730 5731 5732 5733 5734 5735 5736 5736 5737 5737 5738 5738 5738 5738 5738 5738 5739 5739 5739 5740 5740 5741 5741 5741 5741 5742 5743 5743 5743 5743 5744 5744 5744 5745 5745 5746 5747 5748 5749 5750 5751 5753 5754 5755 5756 5756 5756 5756 5756 5756 5756 5757 5757 5758 5758 5759 5760 5761 5762 5762 5763
5692 5693 5694 5695 5696 5697 5698 5700 5701 5703 5705 5706 5708 5710 5712 5713 5715 5717 5719 5720 5721 5722 5723 5724 5726 5727 5727 5728 5729 5730 5731 5732 5733 5734 5734 5734 5735 5735 5735 5735 5735 5736 5736 5736 5736 5737 5737 5738 5738 5739 5739 5740 5740 5740 5741 5741 5741 5741 5742 5742 5743 5743 5744 5745 5746 5747 5749 5750 5751 5752 5753 5753 5753 5753 5752 5752 5753 5754 5754 5755 5756 5756 5757 5758 5759 5759 5760
5690 5691 5692 5693 5694 5695 5696 5697 5698 5699 5701 5702 5704 5706 5708 5710 5712 5714 5716 5717 5718 5719 5720 5722 5723 5724 5725 5726 5727 5727 5728 5729 5730 5731 5731 5731 5732 5732 5732 5732 5732 5732 5733 5733 5734 5735 5735 5736 5736 5736 5737 5738 5738 5738 5738 5739 5739 5740 5740 5740 5741 5741 5742 5743 5744 5745 5746 5747 5748 5749 5749 5750 5750 5750 5750 5751 5751 5751 5752 5752 5753 5754 5755 5755 5756 5756 5757
5688 5689 5690 5691 5691 5692 5693 5694 5695 5697 5698 5699 5701 5703 5705 5707 5708 5710 5712 5713 5715 5716 5718 5719 5720 5722 5723 5724 5724 5725 5726 5726 5727 5727 5728 5728 5728 5729 5729 5729 5729 5730 5730 5731 5731 5732 5733 5734 5734 5734 5735 5736 5737 5737 5737 5737 5738 5738 5739 5739 5740 5740 5741 5741 5742 5743 5743 5744 5745 5746 5746 5747 5747 5748 5748 5749 5749 5749 5750 5751 5751 5752 5753 5753 5754 5754 5754
5686 5687 5688 5689 5689 5690 5691 5692 5694 5696 5697 5698 5699 5700 5702 5703 5705 5707 5708 5710 5712 5713 5715 5717 5718 5720 5721 5722 5722 5723 5723 5724 5724 5725 5725 5725 5726 5726 5726 5726 5727 5727 5727 5728 5729 5730 5731 5731 5732 5732 5733 5734 5735 5735 5736 5736 5737 5737 5738 5738 5738 5739 5739 5739 5740 5740 5741 5741 5742 5743 5744 5744 5745 5745 5746 5746 5747 5747 5748 5748 5749 5750 5750 5751 5752 5752 5753
5684 5685 5686 5686 5687 5688 5689 5690 5692 5693 5694 5695 5697 5698 5699 5701 5703 5704 5706 5708 5709 5711 5712 5714 5715 5717 5718 5719 5720 5721 5721 5722 5722 5722 5723 5723 5723 5724 5724 5724 5724 5724 5725 5726 5726 5727 5728 5729 5729 5730 5731 5732 5733 5734 5734 5735 5735 5735 5736 5736 5736 5736 5737 5737 5737 5737 5738 5738 5739 5740 5741 5742 5742 5743 5743 5744 5744 5745 5745 5746 5747 5747 5748 5748 5749 5750 5750
5682 5683 5684 5685 5685 5686 5688 5689 5690 5691 5692 5693 5694 5696 5697 5699 5701 5703 5704 5706 5707 5709 5710 5711 5713 5714 5716 5717 5718 5719 5719 5720 5720 5721 5721 5722 5722 5722 5722 5722 5722 5722 5722 5723 5724 5725 5726 5726 5727 5728 5728 5729 5730 5731 5732 5733 5733 5733 5733 5734 5734 5734 5734 5734 5735 5735 5735 5736 5737 5737 5738 5739 5739 5740 5741 5741 5742 5743 5743 5744 5744 5745 5745 5746 5746 5747 5747
5681 5681 5682 5683 5684 5685 5686 5687 5688 5689 5690 5691 5693 5694 5696 5697 5699 5701 5702 5704 5705 5707 5708 5709 5711 5712 5713 5715 5716 5716 5717 5718 5719 5719 5720 5720 5720 5720 5720 5720 5720 5720 5720 5721 5722 5723 5723 5724 5725 5726 5726 5727 5728 5729 5729 5730 5730 5731 5731 5731 5732 5732 5732 5733 5733 5733 5734 5734 5735 5735 5736 5737 5737 5738 5739 5740 5741 5741 5742 5742 5742 5743 5743 5743 5744 5744 5744
5679 5679 5680 5680 5682 5683 5684 5685 5685 5687 5688 5690 5691 5692 5694 5695 5697 5698 5700 5702 5703 5704 5705 5707 5708 5710 5711 5712 5713 5714 5715 5716 5717 5718 5719 5719 5719 5719 5719 5719 5719 5719 5719 5720 5720 5721 5722 5722 5723 5724 5724 5725 5726 5726 5727 5728 5728 5729 5729 5730 5730 5731 5731 5731 5732 5732 5733 5733 5734 5734 5735 5735 5736 5737 5738 5738 5739 5740 5740 5740 5741 5741 5741 5741 5741 5741 5741
5677 5677 5678 5678 5679 5681 5682 5683 5684 5685 5686 5688 5689 5690 5691 5693 5694 5696 5698 5699 5701 5702 5703 5704 5706 5707 5709 5710 5711 5712 5713 5714 5715 5716 5717 5718 5718 5718 5718 5718 5719 5719 5719 5719 5720 5720 5721 5721 5722 5723 5723 5724 5724 5725 5726 5727 5728 5728 5729 5729 5729 5730 5730 5730 5731 5731 5732 5732 5733 5733 5734 5734 5735 5735 5736 5737 5737 5738 5738 5738 5738 5738 5738 5738 5738 5737 5737
5675 5675 5676 5676 5677 5679 5680 5681 5682 5683 5684 5685 5686 5687 5689 5690 5692 5693 5695 5697 5698 5699 5700 5702 5703 5705 5706 5708 5709 5710 5711 5712 5713 5714 5715 5716 5717 5717 5718 5718 5718 5719 5719 5719 5720 5720 5721 5722 5722 5723 5723 5724 5725 5725 5726 5727 5727 5728 5728 5728 5729 5729 5729 5730 5730 5730 5731 5731 5731 5732 5732 5733 5733 5734 5734 5734 5735 5735 5735 5735 5735 5735 5735 5734 5734 5734 5734
5673 5674 5674 5675 5675 5677 5678 5679 5680 5681 5682 5682 5684 5685 5686 5687 5689 5691 5693 5694 5696 5697 5698 5699 5700 5702 5703 5705 5707 5708 5709 5710 5711 5712 5714 5715 5716 5716 5717 5717 5718 5718 5719 5719 5720 5721 5721 5722 5723 5723 5724 5724 5725 5725 5726 5726 5727 5727 5727 5727 5728 5728 5728 5729 5729 5729 5729 5730 5730 5730 5730 5731 5731 5731 5731 5731 5731 5731 5731 5731 5731 5731 5731 5731 5730 5730 5730